This is the latest recevied weather packets stored in our database for station/object KE5OYL. If no packets are shown the sender has not sent any weather packets the latest 10 day(s).
| Time | Temp. | Humidity | Pressure | Rain* | Wind** | Luminosity | Snow |
|---|---|---|---|---|---|---|---|
| 1787785341 | 37.78° C | 40% | 1012.3 hPa | 0 mm | - | 58 W/m² | - |
| 1787785040 | 37.78° C | 39% | 1012.1 hPa | 0 mm | - | 99 W/m² | - |
| 1787784736 | 37.78° C | 39% | 1011.9 hPa | 0 mm | - | 229 W/m² | - |
| 1787784434 | 37.78° C | 40% | 1012.1 hPa | 0 mm | - | 249 W/m² | - |
| 1787784134 | 37.22° C | 41% | 1012.3 hPa | 0 mm | - | 263 W/m² | - |
| 1787783831 | 37.78° C | 41% | 1012.4 hPa | 0 mm | - | 280 W/m² | - |
| 1787783526 | 37.78° C | 41% | 1012.5 hPa | 0 mm | - | 297 W/m² | - |
| 1787783221 | 36.67° C | 41% | 1012.7 hPa | 0 mm | - | 318 W/m² | - |
| 1787782916 | 37.22° C | 40% | 1012.9 hPa | 0 mm | - | 338 W/m² | - |
| 1787782615 | 37.22° C | 41% | 1013 hPa | 0 mm | - | 346 W/m² | - |
| 1787782310 | 37.22° C | 42% | 1013.1 hPa | 0 mm | - | 368 W/m² | - |
| 1787782006 | 37.78° C | 41% | 1013 hPa | 0 mm | - | 389 W/m² | - |
| 1787781701 | 37.78° C | 42% | 1013.1 hPa | 0 mm | - | 399 W/m² | - |
| 1787781398 | 37.22° C | 44% | 1013.1 hPa | 0 mm | - | 420 W/m² | - |
| 1787781098 | 37.78° C | 43% | 1013.3 hPa | 0 mm | - | 435 W/m² | - |
| 1787780797 | 36.67° C | 44% | 1013.5 hPa | 0 mm | - | 451 W/m² | - |
| 1787780491 | 37.78° C | 43% | 1013.6 hPa | 0 mm | - | 468 W/m² | - |
| 1787780187 | 36.11° C | 44% | 1013.7 hPa | 0 mm | - | 479 W/m² | - |
| 1787779882 | 36.11° C | 45% | 1013.6 hPa | 0 mm | - | 505 W/m² | - |
| 1787779582 | 36.11° C | 46% | 1013.7 hPa | 0 mm | - | 457 W/m² | - |
| 1787779276 | 36.67° C | 46% | 1013.7 hPa | 0 mm | - | 573 W/m² | - |
| 1787778971 | 36.11° C | 45% | 1013.6 hPa | 0 mm | - | 605 W/m² | - |
| 1787778667 | 36.11° C | 46% | 1013.8 hPa | 0 mm | - | 660 W/m² | - |
| 1787778363 | 35.56° C | 48% | 1013.9 hPa | 0 mm | - | 691 W/m² | - |
| 1787778058 | 36.11° C | 48% | 1014 hPa | 0 mm | - | 746 W/m² | - |
* Rain latest hour (hover to see other rain measurements)
** Current wind speed in m/s (hover to see current wind gust speed)